Weather History for KRSN - June, 2013

Change the Weather History Date:

Friday, June 21, 2013

  Actual Average Record
Temperature  
Mean Temperature 81 °F -  
Max Temperature 92 °F 90 °F 103 °F (1936)
Min Temperature 70 °F 69 °F 53 °F (2006)
Cooling Degree Days 16    
Growing Degree Days 31 (Base 50)    
Moisture  
Dew Point 73 °F    
Average Humidity 85    
Maximum Humidity 100    
Minimum Humidity 48    
Precipitation  
Precipitation 0.51 in - - ()
Sea Level Pressure  
Sea Level Pressure 30.13 in    
Wind  
Wind Speed 1 mph (South)    
Max Wind Speed 13 mph    
Max Gust Speed 17 mph    
Visibility 7 miles    
Events Rain , Thunderstorm    
Averages and records for this station are not official NWS values.
T = Trace of Precipitation, MM = Missing Value Source: NWS Daily Summary

Daily Weather History Graph

Daily Weather History Graph

Search for Another Location

Airport or City:

Trip Planner

Search our weather history database for the weather conditions in past years. The results will help you decide how hot, cold, wet, or windy it might be!

Date:

Astronomy

Jun. 21, 2013 Rise Set
Actual Time 6:03 AM CDT 8:20 PM CDT
Civil Twilight 5:34 AM CDT 8:49 PM CDT
Nautical Twilight 5:00 AM CDT 9:24 PM CDT
Astronomical Twilight 4:22 AM CDT 10:02 PM CDT
Moon 6:35 PM CDT (6/21) 4:14 AM CDT (6/21)
Length of Visible Light 15h 14m
Length of Day
14h 17m
Waxing Gibbous, 95% of the Moon is Illuminated
Jun 21
Waxing Gibbous
Jun 23
Full
Jun 29
Last Quarter
Jul 8
New
Jul 15
First Quarter

Hourly Weather History & Observations

Time (CDT) Temp. Heat Index Dew Point Humidity Pressure Visibility Wind Dir Wind Speed Gust Speed Precip Events Conditions
12:15 AM 75.4 °F - 75.4 °F 100% 30.12 in 10.0 mi Calm Calm - N/A   Clear
12:35 AM 75.7 °F - 75.7 °F 100% 30.12 in 10.0 mi Calm Calm - N/A   Clear
12:55 AM 75.6 °F - 75.6 °F 100% 30.13 in 10.0 mi Calm Calm - N/A   Clear
1:15 AM 75.0 °F - 75.0 °F 100% 30.13 in 10.0 mi Calm Calm - N/A   Clear
1:35 AM 74.1 °F - 74.1 °F 100% 30.12 in 5.0 mi Calm Calm - N/A   Clear
1:55 AM 73.4 °F - 73.4 °F 100% 30.12 in 3.0 mi Calm Calm - N/A   Clear
2:15 AM 73.4 °F - 73.4 °F 100% 30.12 in 5.0 mi Calm Calm - N/A   Clear
2:35 AM 73.8 °F - 73.8 °F 100% 30.12 in 7.0 mi Calm Calm - N/A   Clear
2:55 AM 74.3 °F - 74.3 °F 100% 30.11 in 7.0 mi Calm Calm - N/A   Clear
3:15 AM 74.1 °F - 74.1 °F 100% 30.11 in 7.0 mi Calm Calm - N/A   Clear
3:35 AM 73.4 °F - 73.4 °F 100% 30.11 in 7.0 mi Calm Calm - N/A   Clear
3:55 AM 72.5 °F - 72.5 °F 100% 30.11 in 5.0 mi Calm Calm - N/A   Clear
4:15 AM 72.5 °F - 72.5 °F 100% 30.11 in 5.0 mi Calm Calm - N/A   Clear
4:35 AM 71.8 °F - 71.8 °F 100% 30.11 in 1.5 mi Calm Calm - N/A   Mist
4:55 AM 71.4 °F - 71.4 °F 100% 30.11 in 3.0 mi Calm Calm - N/A   Mist
5:15 AM 71.4 °F - 71.4 °F 100% 30.12 in 2.5 mi Calm Calm - N/A   Mist
5:35 AM 71.1 °F - 71.1 °F 100% 30.12 in 2.0 mi Calm Calm - N/A   Mist
5:55 AM 70.7 °F - 70.7 °F 100% 30.13 in 4.0 mi Calm Calm - N/A   Clear
6:15 AM 70.2 °F - 70.2 °F 100% 30.13 in 2.5 mi Calm Calm - N/A   Mist
6:35 AM 70.2 °F - 70.2 °F 100% 30.13 in 2.5 mi Calm Calm - N/A   Mist
6:55 AM 71.1 °F - 71.1 °F 100% 30.14 in 4.0 mi Calm Calm - N/A   Clear
7:15 AM 72.0 °F - 72.0 °F 100% 30.14 in 3.0 mi Calm Calm - N/A   Clear
7:35 AM 73.6 °F - 73.6 °F 100% 30.14 in 7.0 mi Calm Calm - N/A   Clear
7:55 AM 75.2 °F - 75.2 °F 100% 30.14 in 10.0 mi Calm Calm - N/A   Clear
8:15 AM 77.4 °F - 77.4 °F 100% 30.15 in 10.0 mi Calm Calm - N/A   Clear
8:35 AM 78.6 °F - 78.1 °F 98% 30.15 in 10.0 mi Calm Calm - N/A   Clear
8:55 AM 79.7 °F - 76.6 °F 90% 30.16 in 10.0 mi Calm Calm - N/A   Clear
9:15 AM 81.0 °F 86.7 °F 75.0 °F 82% 30.16 in 10.0 mi Calm Calm - N/A   Clear
9:35 AM 81.5 °F 87.4 °F 74.3 °F 79% 30.16 in 10.0 mi Calm Calm - N/A   Clear
9:55 AM 82.4 °F 88.7 °F 74.1 °F 76% 30.16 in 10.0 mi SW 4.6 mph - N/A   Clear
10:15 AM 83.7 °F 90.4 °F 73.8 °F 72% 30.16 in 10.0 mi Calm Calm - N/A   Clear
10:35 AM 84.6 °F 91.4 °F 73.4 °F 69% 30.16 in 10.0 mi Calm Calm - N/A   Clear
10:55 AM 85.1 °F 90.4 °F 71.4 °F 63% 30.17 in 10.0 mi Calm Calm - N/A   Clear
11:15 AM 85.8 °F 91.5 °F 71.6 °F 62% 30.17 in 10.0 mi SW 3.5 mph - N/A   Clear
11:35 AM 86.2 °F 92.2 °F 71.8 °F 62% 30.18 in 10.0 mi Calm Calm - N/A   Clear
11:55 AM 86.5 °F 92.5 °F 71.8 °F 61% 30.18 in 10.0 mi North 3.5 mph - N/A   Scattered Clouds
12:15 PM 88.3 °F 94.5 °F 71.6 °F 57% 30.18 in 10.0 mi Calm Calm - N/A   Mostly Cloudy
12:35 PM 87.8 °F 92.6 °F 69.8 °F 55% 30.17 in 10.0 mi Calm Calm - N/A   Scattered Clouds
12:55 PM 89.2 °F 94.9 °F 70.5 °F 54% 30.17 in 10.0 mi Calm Calm - N/A   Clear
1:15 PM 88.5 °F 93.5 °F 70.2 °F 54% 30.16 in 10.0 mi Calm Calm - N/A   Clear
1:35 PM 89.1 °F 94.1 °F 70.2 °F 53% 30.16 in 10.0 mi Calm Calm - N/A   Scattered Clouds
1:55 PM 90.7 °F 96.9 °F 70.7 °F 52% 30.15 in 10.0 mi SW 3.5 mph - N/A   Scattered Clouds
2:15 PM 90.3 °F 95.7 °F 70.0 °F 51% 30.15 in 10.0 mi SSW 4.6 mph - N/A   Clear
2:35 PM 90.0 °F 95.9 °F 70.5 °F 53% 30.14 in 10.0 mi SSW 4.6 mph - N/A   Scattered Clouds
2:55 PM 90.5 °F 96.5 °F 70.7 °F 52% 30.13 in 10.0 mi Calm Calm - N/A   Scattered Clouds
3:15 PM 90.7 °F 95.4 °F 69.3 °F 49% 30.13 in 10.0 mi South 3.5 mph - N/A   Scattered Clouds
3:35 PM 90.7 °F 95.9 °F 69.8 °F 50% 30.12 in 10.0 mi South 3.5 mph - N/A   Mostly Cloudy
3:55 PM 91.4 °F 96.3 °F 69.1 °F 48% 30.12 in 10.0 mi SSW 4.6 mph - N/A   Scattered Clouds
4:15 PM 91.4 °F 97.3 °F 70.3 °F 50% 30.11 in 10.0 mi SW 3.5 mph - N/A   Mostly Cloudy
4:35 PM 92.3 °F 99.2 °F 71.2 °F 50% 30.11 in 10.0 mi ESE 5.8 mph - N/A   Overcast
4:55 PM 88.5 °F 96.8 °F 73.8 °F 61% 30.11 in 10.0 mi ENE 10.4 mph - N/A Thunderstorm Overcast
5:15 PM 78.4 °F - 71.6 °F 79% - - North - - N/A   Unknown
5:35 PM 73.9 °F - 71.1 °F 91% 30.13 in 1.5 mi SSE 12.7 mph 17.3 mph 0.49 in Rain , Thunderstorm Heavy Thunderstorms and Rain
5:55 PM 73.6 °F - 69.6 °F 87% 30.12 in 7.0 mi SSW 11.5 mph - 0.51 in Rain , Thunderstorm Light Thunderstorms and Rain
6:15 PM 74.5 °F - 72.5 °F 94% 30.10 in 10.0 mi Calm Calm - N/A   Clear
6:35 PM 78.3 °F - 71.8 °F 80% 30.09 in 10.0 mi Calm Calm - N/A   Clear
6:55 PM 80.8 °F 84.9 °F 71.8 °F 74% 30.09 in 10.0 mi Calm Calm - N/A   Clear
7:15 PM 79.5 °F - 74.3 °F 84% 30.09 in 10.0 mi Calm Calm - N/A   Clear
7:35 PM 78.1 °F - 77.9 °F 99% 30.09 in 10.0 mi Calm Calm - N/A   Clear
7:55 PM 77.4 °F - 77.4 °F 100% 30.09 in 7.0 mi Calm Calm - N/A   Clear
8:15 PM 76.3 °F - 76.3 °F 100% 30.10 in 4.0 mi Calm Calm - N/A   Clear
8:35 PM 76.3 °F - 76.3 °F 100% 30.09 in 7.0 mi Calm Calm - N/A   Clear
8:55 PM 75.2 °F - 75.2 °F 100% 30.09 in 3.0 mi Calm Calm - N/A   Clear
9:15 PM 75.2 °F - 75.2 °F 100% 30.10 in 2.5 mi Calm Calm - N/A   Clear
9:35 PM 75.0 °F - 75.0 °F 100% 30.10 in 3.0 mi South 4.6 mph - N/A   Scattered Clouds
9:55 PM 75.7 °F - 75.7 °F 100% 30.11 in 10.0 mi Calm Calm - N/A   Scattered Clouds
10:15 PM 75.2 °F - 75.2 °F 100% 30.10 in 7.0 mi Calm Calm - N/A   Clear
10:35 PM 74.3 °F - 74.3 °F 100% 30.11 in 2.5 mi Calm Calm - N/A   Clear
10:55 PM 74.3 °F - 74.3 °F 100% 30.10 in 7.0 mi Calm Calm - N/A   Clear
11:15 PM 73.9 °F - 73.9 °F 100% 30.10 in 5.0 mi Calm Calm - N/A   Clear
11:35 PM 73.6 °F - 73.6 °F 100% 30.10 in 2.5 mi Calm Calm - N/A   Clear
11:55 PM 73.2 °F - 73.2 °F 100% 30.10 in 1.0 mi Calm Calm - N/A   Mist